Weather History for Port Lavaca, TX

Change the Weather History Date:

Friday, October 11, 2013

  Actual Average (KVCT) Record (KVCT)
Temperature  
Mean Temperature 79 °F 74 °F  
Max Temperature 87 °F 85 °F 109 °F (1926)
Min Temperature 71 °F 62 °F 45 °F (1909)
Degree Days  
Heating Degree Days 0 0  
Month to date heating degree days 0  
Since 1 July heating degree days 1  
Cooling Degree Days 14 9  
Month to date cooling degree days 109  
Year to date cooling degree days 2907  
Growing Degree Days 29 (Base 50)    
Moisture  
Dew Point 73 °F    
Average Humidity 83    
Maximum Humidity 92    
Minimum Humidity 63    
Precipitation  
Precipitation 0.00 in 0.15 in 3.20 in (1997)
Month to date precipitation 1.58  
Year to date precipitation 32.61  
Snow  
Snow 0.00 in - - ()
Month to date snowfall  
Since 1 July snowfall  
Since 1 September snowfall  
Snow Depth -    
Sea Level Pressure  
Sea Level Pressure 29.90 in    
Wind  
Wind Speed 8 mph (SE)    
Max Wind Speed 16 mph    
Max Gust Speed 20 mph    
Visibility 10 miles    
Events      
T = Trace of Precipitation, MM = Missing Value Source: NWS Daily Summary

Daily Weather History Graph

Daily Weather History Graph

Search for Another Location

Airport:

Trip Planner

Search our weather history database for the weather conditions in past years. The results will help you decide how hot, cold, wet, or windy it might be!

Date:

Astronomy

Oct. 11, 2013 Rise Set
Actual Time 7:25 AM CDT 7:00 PM CDT
Civil Twilight 7:01 AM CDT 7:24 PM CDT
Nautical Twilight 6:34 AM CDT 7:51 PM CDT
Astronomical Twilight 6:06 AM CDT 8:19 PM CDT
Moon 1:53 PM CDT (10/11) No Moon Set
Length of Visible Light 12h 22m
Length of Day
11h 35m
Waxing Crescent, 47% of the Moon is Illuminated
Oct 11
Waxing Crescent
Oct 11
First Quarter
Oct 18
Full
Oct 26
Last Quarter
Nov 3
New

Hourly Weather History & Observations

Time (CDT) Temp. Heat Index Dew Point Humidity Pressure Visibility Wind Dir Wind Speed Gust Speed Precip Events Conditions
12:15 AM 74.3 °F - 69.6 °F 85% 29.93 in 10.0 mi SE 6.9 mph - N/A   Scattered Clouds
12:35 AM 73.6 °F - 69.4 °F 87% 29.93 in 10.0 mi SE 5.8 mph - N/A   Scattered Clouds
12:55 AM 72.9 °F - 69.3 °F 88% 29.92 in 10.0 mi SE 4.6 mph - N/A   Clear
1:15 AM 72.1 °F - 69.1 °F 90% 29.92 in 10.0 mi SE 4.6 mph - N/A   Clear
1:55 AM 72.1 °F - 68.9 °F 89% 29.92 in 10.0 mi SE 5.8 mph - N/A   Scattered Clouds
2:15 AM 71.8 °F - 68.9 °F 91% 29.91 in 10.0 mi SE 5.8 mph - N/A   Scattered Clouds
2:35 AM 71.8 °F - 68.9 °F 91% 29.91 in 10.0 mi SSE 5.8 mph - N/A   Scattered Clouds
2:55 AM 72.0 °F - 68.9 °F 90% 29.90 in 10.0 mi SSE 4.6 mph - N/A   Mostly Cloudy
3:15 AM 71.6 °F - 68.5 °F 90% 29.89 in 10.0 mi SE 5.8 mph - N/A   Scattered Clouds
3:35 AM 73.4 °F - 69.6 °F 88% 29.89 in 10.0 mi SE 6.9 mph - N/A   Mostly Cloudy
3:55 AM 73.2 °F - 69.4 °F 88% 29.88 in 10.0 mi SE 6.9 mph - N/A   Scattered Clouds
4:15 AM 73.0 °F - 69.8 °F 90% 29.88 in 10.0 mi SSE 6.9 mph - N/A   Clear
4:35 AM 73.4 °F - 69.8 °F 88% 29.88 in 10.0 mi SSE 6.9 mph - N/A   Clear
4:55 AM 73.9 °F - 69.8 °F 87% 29.88 in 10.0 mi SSE 6.9 mph - N/A   Scattered Clouds
5:15 AM 74.3 °F - 70.2 °F 87% 29.88 in 10.0 mi SE 6.9 mph - N/A   Mostly Cloudy
5:35 AM 74.3 °F - 70.3 °F 87% 29.89 in 10.0 mi SE 6.9 mph - N/A   Mostly Cloudy
5:55 AM 74.1 °F - 70.2 °F 87% 29.89 in 10.0 mi SE 5.8 mph - N/A   Scattered Clouds
6:15 AM 73.8 °F - 70.3 °F 89% 29.90 in 10.0 mi SE 5.8 mph - N/A   Mostly Cloudy
6:35 AM 73.4 °F - 70.2 °F 90% 29.90 in 10.0 mi SE 5.8 mph - N/A   Scattered Clouds
6:55 AM 73.4 °F - 70.5 °F 91% 29.91 in 10.0 mi SE 3.5 mph - N/A   Mostly Cloudy
7:15 AM 74.1 °F - 70.9 °F 90% 29.91 in 10.0 mi ESE 4.6 mph - N/A   Overcast
7:35 AM 74.3 °F - 71.1 °F 90% 29.91 in 10.0 mi ESE 4.6 mph - N/A   Overcast
7:55 AM 74.7 °F - 71.2 °F 89% 29.91 in 10.0 mi SE 4.6 mph - N/A   Overcast
8:15 AM 76.1 °F - 71.6 °F 86% 29.92 in 10.0 mi SE 4.6 mph - N/A   Overcast
8:35 AM 76.8 °F - 72.0 °F 85% 29.93 in 10.0 mi SE 4.6 mph - N/A   Overcast
8:55 AM 77.7 °F - 72.7 °F 84% 29.93 in 10.0 mi SE 4.6 mph - N/A   Overcast
9:15 AM 79.3 °F - 73.4 °F 82% 29.93 in 10.0 mi SE 5.8 mph - N/A   Mostly Cloudy
9:35 AM 79.3 °F - 73.6 °F 82% 29.93 in 10.0 mi SE 8.1 mph - N/A   Mostly Cloudy
9:55 AM 82.0 °F 88.4 °F 74.5 °F 78% 29.93 in 10.0 mi SE 9.2 mph - N/A   Mostly Cloudy
10:15 AM 83.3 °F 90.2 °F 74.1 °F 74% 29.94 in 10.0 mi SE 16.1 mph - N/A   Scattered Clouds
10:35 AM 83.7 °F 91.0 °F 74.5 °F 74% 29.94 in 10.0 mi SSE 13.8 mph - N/A   Mostly Cloudy
10:55 AM 83.7 °F 90.1 °F 73.2 °F 71% 29.94 in 10.0 mi SSE 12.7 mph 18.4 mph N/A   Overcast
11:15 AM 83.3 °F 89.3 °F 73.0 °F 71% 29.94 in 10.0 mi SE 13.8 mph - N/A   Overcast
11:35 AM 84.6 °F 92.1 °F 74.1 °F 71% 29.94 in 10.0 mi SSE 12.7 mph - N/A   Overcast
11:55 AM 84.2 °F 91.6 °F 74.3 °F 72% 29.93 in 10.0 mi SE 11.5 mph 16.1 mph N/A   Overcast
12:15 PM 84.6 °F 91.7 °F 73.9 °F 70% 29.93 in 10.0 mi SE 15.0 mph - N/A   Overcast
12:35 PM 85.6 °F 94.2 °F 74.7 °F 70% 29.92 in 10.0 mi SE 13.8 mph - N/A   Overcast
12:55 PM 84.6 °F 92.4 °F 74.5 °F 72% 29.92 in 10.0 mi SE 13.8 mph 19.6 mph N/A   Scattered Clouds
1:15 PM 84.0 °F 91.5 °F 74.7 °F 73% 29.91 in 10.0 mi SE 12.7 mph 18.4 mph N/A   Mostly Cloudy
1:35 PM 83.7 °F 91.3 °F 74.8 °F 75% 29.90 in 10.0 mi SE 16.1 mph - N/A   Overcast
1:55 PM 84.7 °F 92.8 °F 74.7 °F 72% 29.89 in 10.0 mi SE 15.0 mph - N/A   Overcast
2:15 PM 84.6 °F 91.7 °F 73.8 °F 70% 29.88 in 10.0 mi South 13.8 mph - N/A   Overcast
2:35 PM 85.1 °F 92.9 °F 74.1 °F 70% 29.87 in 10.0 mi SE 12.7 mph - N/A   Overcast
2:55 PM 86.7 °F 95.0 °F 74.1 °F 66% 29.87 in 10.0 mi South 13.8 mph - N/A   Overcast
3:15 PM 85.3 °F 94.2 °F 75.4 °F 72% 29.86 in 10.0 mi SE 13.8 mph - N/A   Mostly Cloudy
3:35 PM 84.4 °F 93.5 °F 75.9 °F 76% 29.86 in 10.0 mi ESE 10.4 mph - N/A   Overcast
3:55 PM 87.4 °F 95.3 °F 73.6 °F 63% 29.86 in 10.0 mi South 11.5 mph 17.3 mph N/A   Mostly Cloudy
4:15 PM 84.7 °F 93.2 °F 75.2 °F 73% 29.85 in 10.0 mi SSE 11.5 mph - N/A   Mostly Cloudy
4:35 PM 86.5 °F 95.5 °F 74.8 °F 68% 29.86 in 10.0 mi SSE 12.7 mph 18.4 mph N/A   Overcast
4:55 PM 82.2 °F 88.5 °F 74.3 °F 77% 29.86 in 10.0 mi ESE 12.7 mph - N/A   Overcast
5:15 PM 82.6 °F 89.7 °F 75.2 °F 78% 29.85 in 10.0 mi ESE 13.8 mph - N/A   Mostly Cloudy
5:35 PM 83.8 °F 91.8 °F 75.2 °F 75% 29.85 in 10.0 mi SE 13.8 mph 18.4 mph N/A   Mostly Cloudy
5:55 PM 81.0 °F 86.0 °F 73.4 °F 78% 29.86 in 10.0 mi ESE 15.0 mph - N/A   Scattered Clouds
6:15 PM 80.4 °F 85.5 °F 74.3 °F 82% 29.86 in 10.0 mi ESE 11.5 mph - N/A   Mostly Cloudy
6:35 PM 79.3 °F - 74.5 °F 85% 29.86 in 10.0 mi ESE 10.4 mph - N/A   Scattered Clouds
6:55 PM 79.2 °F - 74.8 °F 87% 29.87 in 10.0 mi ESE 12.7 mph - N/A   Clear
7:15 PM 79.0 °F - 75.2 °F 88% 29.87 in 10.0 mi ESE 10.4 mph - N/A   Clear
7:35 PM 78.8 °F - 75.6 °F 90% 29.88 in 10.0 mi ESE 9.2 mph - N/A   Clear
7:55 PM 79.0 °F - 76.1 °F 91% 29.87 in 10.0 mi ESE 10.4 mph - N/A   Clear
8:15 PM 78.8 °F - 76.3 °F 92% 29.88 in 10.0 mi SE 9.2 mph - N/A   Clear
8:35 PM 78.6 °F - 76.1 °F 92% 29.88 in 10.0 mi SE 6.9 mph - N/A   Clear
8:55 PM 78.4 °F - 75.6 °F 91% 29.88 in 10.0 mi SE 9.2 mph - N/A   Clear
9:15 PM 78.1 °F - 75.2 °F 91% 29.89 in 10.0 mi SE 8.1 mph - N/A   Clear
9:35 PM 77.9 °F - 75.2 °F 91% 29.89 in 10.0 mi SE 6.9 mph - N/A   Clear
9:55 PM 78.1 °F - 75.6 °F 92% 29.90 in 10.0 mi SE 6.9 mph - N/A   Clear
10:15 PM 77.9 °F - 75.2 °F 91% 29.90 in 10.0 mi SE 9.2 mph - N/A   Clear
10:35 PM 77.5 °F - 74.5 °F 90% 29.90 in 10.0 mi SE 9.2 mph - N/A   Clear
10:55 PM 77.2 °F - 74.3 °F 91% 29.90 in 10.0 mi SE 6.9 mph - N/A   Clear
11:15 PM 77.0 °F - 74.3 °F 91% 29.90 in 10.0 mi SE 6.9 mph - N/A   Clear
11:35 PM 77.0 °F - 74.3 °F 91% 29.90 in 10.0 mi SE 6.9 mph - N/A   Clear
11:55 PM 77.0 °F - 74.3 °F 91% 29.90 in 10.0 mi SE 4.6 mph - N/A   Clear